Find Starlink 3858

NORAD ID: 52553 Int'l Des: 2022-051 Owner: SPXS Country: US Constellation: starlink operational
LEOCIRCULAR

現在のビュー

3D地球を読み込み中...

About Starlink 3858

Starlink 3858 (NORAD 52553) is a starlink constellation satellite (v1.5) launched May 13, 2022 by SPXS of US. It operates in LEO, CIRCULAR orbit with a mass of 297.00 kg.

Starlink 3858について

説明を読み込み中...

次回通過

Passes for default location (London). Set your location on the main map for personalized predictions.

高度履歴

Loading altitude history...

軌道要素

1 52553U 22051W 26169.93042416 .00873716 40872-3 11890-2 0 9990
2 52553 53.2196 15.2280 0002799 36.7169 323.4056 16.05777030227005
Epoch: Jun 18, 2026 • Age: 4 hours

現在のステータス

高度 261.4 km
速度 7.76 km/s
衛星直下点 40.33°N, 139.58°W
打ち上げ日 May 13, 2022
運用期間 4 years
タイプ internet

技術仕様

分類 Payload
質量 297.00 kg
乾燥質量 275.00 kg
総質量 297.00 kg
長さ 0.20 m
直径 2.80 m
スパン 9.00 m
形状 Box + pan
製造者 SPXS
バスタイプ Starlink
フェーズステータス In Orbit
所有者/国 SPXS/US

Most Searched